Location: Austin
(30.3000°N, 97.7500°W)
Time: 12:18:50
(UTC-05:00)

UNK - Pass Details

Date: 21 May 2026
Orbit: 653 x 672 km, 98.4° (Epoch: 11 June)

Event Time Altitude Azimuth Distance (km) Brightness Sun altitude
Rises 05:08:38 0° 119° (ESE) 2,979 7.4 -16.7°
Reaches altitude 10° 05:12:22 10° 86° (E) 2,067 7.1 -16.0°
Maximum altitude 05:13:51 12° 67° (ENE) 1,965 7.4 -15.8°
Drops below altitude 10° 05:15:20 10° 47° (NE) 2,068 7.6 -15.5°
Sets 05:19:04 0° 15° (NNE) 2,981 7.9 -14.9°
